(°C)
(°C)
VSV
SV
SV
VSV
VSV
VSV
VSV
(km/h)
6-10
6-9
6-10
7-11
7-11
6-10
6-8
(mm)
0
0
0
0
0
0
0
(%)
1
1
1
0
0
0
0

Výška Slnka nad obzorom

/ -74.9°
sun-icon
UV 3
06:44
17:19
Ubúdajúci kosáčik (322°)
04:38
14:33

Správy METAR pre lokalitu San Diego (KSAN)

Čas Podmienky Teplota/
Rosný bod
Vietor Viditeľnosť Počasie Oblaky Tlak Zmeniť Nespracované
VFR 9.4°C / -1.7°C 280º 3kt >10km - Few Clouds 25000ft 1021 - KSAN 290751Z 28003KT 10SM FEW250 09/M02 A3015 RMK AO2 SLP211 T00941017 402500061
VFR 10.6°C / -1.7°C variable 0kt >10km - Scattered Clouds 25000ft 1021 - KSAN 290651Z 00000KT 10SM SCT250 11/M02 A3017 RMK AO2 SLP215 T01061017
VFR 11.7°C / -2.2°C variable 0kt >10km - Scattered Clouds 25000ft 1021 - KSAN 290551Z 00000KT 10SM SCT250 12/M02 A3017 RMK AO2 SLP217 T01171022 10211 20111 58002
VFR 11.7°C / 5.6°C variable 0kt >10km - Scattered Clouds 25000ft 1021 - KSAN 290451Z 00000KT 10SM SCT250 12/06 A3018 RMK AO2 SLP218 T01170056
VFR 13.3°C / 6.7°C 280º 4kt >10km - Few Clouds 25000ft 1021 - KSAN 290351Z 28004KT 10SM FEW250 13/07 A3018 RMK AO2 SLP219 T01330067
VFR 13.9°C / 7.2°C variable 0kt >10km - Few Clouds 25000ft 1021 - KSAN 290251Z 00000KT 10SM FEW250 14/07 A3018 RMK AO2 SLP219 T01390072 53006
VFR 15.6°C / 7.2°C 330º 3kt >10km - Few Clouds 25000ft 1021 - KSAN 290151Z 33003KT 10SM FEW250 16/07 A3017 RMK AO2 SLP216 T01560072
VFR 18.3°C / 5°C 300º 4kt >10km - Scattered Clouds 25000ft 1021 - KSAN 290051Z 30004KT 10SM SCT250 18/05 A3016 RMK AO2 SLP213 T01830050
VFR 21.1°C / -5.6°C 220º 7kt >10km - Scattered Clouds 25000ft 1021 - KSAN 282351Z 22007KT 10SM SCT250 21/M06 A3016 RMK AO2 SLP212 T02111056 10250 20189 58010
VFR 21.1°C / -3.3°C 270º 6kt >10km - Scattered Clouds 19000ft
Broken Clouds 25000ft
1021 - KSAN 282251Z 27006KT 10SM SCT190 BKN250 21/M03 A3017 RMK AO2 SLP217 T02111033
VFR 21.1°C / -5°C 280º 7kt >10km - Scattered Clouds 25000ft 1021 - KSAN 282151Z 28007KT 10SM SCT250 21/M05 A3018 RMK AO2 SLP219 T02111050
VFR 22.8°C / -3.9°C 150º 4kt >10km - Scattered Clouds 25000ft 1022 - KSAN 282051Z 15004KT 10SM SCT250 23/M04 A3019 RMK AO2 SLP222 T02281039 58026
VFR 22.2°C / -8.3°C variable 0kt >10km - Scattered Clouds 25000ft 1023 - KSAN 281951Z 00000KT 10SM SCT250 22/M08 A3022 RMK AO2 SLP233 T02221083
VFR 22.2°C / -7.2°C variable 4kt >10km - Broken Clouds 25000ft 1024 - KSAN 281851Z VRB04KT 10SM BKN250 22/M07 A3024 RMK AO2 SLP240 T02221072
VFR 18.9°C / -1.7°C variable 0kt >10km - Broken Clouds 25000ft 1024 - KSAN 281751Z 00000KT 10SM BKN250 19/M02 A3027 RMK AO2 SLP249 T01891017 10189 20061 50007
VFR 15°C / 1.7°C variable 0kt >10km - Broken Clouds 25000ft 1024 - KSAN 281651Z 00000KT 10SM BKN250 15/02 A3027 RMK AO2 SLP249 T01500017
VFR 9.4°C / 1.1°C 340º 4kt >10km - Broken Clouds 25000ft 1024 - KSAN 281551Z 34004KT 10SM BKN250 09/01 A3026 RMK AO2 SLP246 T00940011
VFR 7.2°C / 1.7°C variable 0kt >10km - Scattered Clouds 25000ft 1024 - KSAN 281451Z 00000KT 10SM SCT250 07/02 A3025 RMK AO2 SLP242 T00720017 53013
VFR 7.2°C / 2.2°C variable 3kt >10km - Broken Clouds 25000ft 1023 - KSAN 281351Z VRB03KT 10SM BKN250 07/02 A3023 RMK AO2 SLP236 T00720022
VFR 7.2°C / 2.2°C variable 0kt >10km - Few Clouds 25000ft 1023 - KSAN 281251Z 00000KT 10SM FEW250 07/02 A3021 RMK AO2 SLP231 T00720022
VFR 6.7°C / 2.8°C variable 0kt >10km - Few Clouds 25000ft 1022 - KSAN 281151Z 00000KT 10SM FEW250 07/03 A3021 RMK AO2 SLP229 T00670028 10111 20061 58002
VFR 7.2°C / 3.3°C variable 0kt >10km - Few Clouds 25000ft 1023 - KSAN 281051Z 00000KT 10SM FEW250 07/03 A3021 RMK AO2 SLP230 T00720033
VFR 7.8°C / 3.9°C variable 0kt >10km - Few Clouds 25000ft 1023 - KSAN 280951Z 00000KT 10SM FEW250 08/04 A3021 RMK AO2 SLP231 T00780039
VFR 8.3°C / 4.4°C 290º 3kt >10km - Few Clouds 25000ft 1023 - KSAN 280851Z 29003KT 10SM FEW250 08/04 A3021 RMK AO2 SLP231 T00830044 50001

VFR

9.4°C / -1.7°C

[Viac]
Vietor 280º 3kt
Viditeľnosť >10km
Počasie -
Oblaky Few Clouds 25000ft
Tlak 1021
Zmeniť -
Nespracované KSAN 290751Z 28003KT 10SM FEW250 09/M02 A3015 RMK AO2 SLP211 T00941017 402500061

VFR

10.6°C / -1.7°C

[Viac]
Vietor variable 0kt
Viditeľnosť >10km
Počasie -
Oblaky Scattered Clouds 25000ft
Tlak 1021
Zmeniť -
Nespracované KSAN 290651Z 00000KT 10SM SCT250 11/M02 A3017 RMK AO2 SLP215 T01061017

VFR

11.7°C / -2.2°C

[Viac]
Vietor variable 0kt
Viditeľnosť >10km
Počasie -
Oblaky Scattered Clouds 25000ft
Tlak 1021
Zmeniť -
Nespracované KSAN 290551Z 00000KT 10SM SCT250 12/M02 A3017 RMK AO2 SLP217 T01171022 10211 20111 58002

VFR

11.7°C / 5.6°C

[Viac]
Vietor variable 0kt
Viditeľnosť >10km
Počasie -
Oblaky Scattered Clouds 25000ft
Tlak 1021
Zmeniť -
Nespracované KSAN 290451Z 00000KT 10SM SCT250 12/06 A3018 RMK AO2 SLP218 T01170056

VFR

13.3°C / 6.7°C

[Viac]
Vietor 280º 4kt
Viditeľnosť >10km
Počasie -
Oblaky Few Clouds 25000ft
Tlak 1021
Zmeniť -
Nespracované KSAN 290351Z 28004KT 10SM FEW250 13/07 A3018 RMK AO2 SLP219 T01330067

VFR

13.9°C / 7.2°C

[Viac]
Vietor variable 0kt
Viditeľnosť >10km
Počasie -
Oblaky Few Clouds 25000ft
Tlak 1021
Zmeniť -
Nespracované KSAN 290251Z 00000KT 10SM FEW250 14/07 A3018 RMK AO2 SLP219 T01390072 53006

VFR

15.6°C / 7.2°C

[Viac]
Vietor 330º 3kt
Viditeľnosť >10km
Počasie -
Oblaky Few Clouds 25000ft
Tlak 1021
Zmeniť -
Nespracované KSAN 290151Z 33003KT 10SM FEW250 16/07 A3017 RMK AO2 SLP216 T01560072

VFR

18.3°C / 5°C

[Viac]
Vietor 300º 4kt
Viditeľnosť >10km
Počasie -
Oblaky Scattered Clouds 25000ft
Tlak 1021
Zmeniť -
Nespracované KSAN 290051Z 30004KT 10SM SCT250 18/05 A3016 RMK AO2 SLP213 T01830050

VFR

21.1°C / -5.6°C

[Viac]
Vietor 220º 7kt
Viditeľnosť >10km
Počasie -
Oblaky Scattered Clouds 25000ft
Tlak 1021
Zmeniť -
Nespracované KSAN 282351Z 22007KT 10SM SCT250 21/M06 A3016 RMK AO2 SLP212 T02111056 10250 20189 58010

VFR

21.1°C / -3.3°C

[Viac]
Vietor 270º 6kt
Viditeľnosť >10km
Počasie -
Oblaky Scattered Clouds 19000ft
Broken Clouds 25000ft
Tlak 1021
Zmeniť -
Nespracované KSAN 282251Z 27006KT 10SM SCT190 BKN250 21/M03 A3017 RMK AO2 SLP217 T02111033

VFR

21.1°C / -5°C

[Viac]
Vietor 280º 7kt
Viditeľnosť >10km
Počasie -
Oblaky Scattered Clouds 25000ft
Tlak 1021
Zmeniť -
Nespracované KSAN 282151Z 28007KT 10SM SCT250 21/M05 A3018 RMK AO2 SLP219 T02111050

VFR

22.8°C / -3.9°C

[Viac]
Vietor 150º 4kt
Viditeľnosť >10km
Počasie -
Oblaky Scattered Clouds 25000ft
Tlak 1022
Zmeniť -
Nespracované KSAN 282051Z 15004KT 10SM SCT250 23/M04 A3019 RMK AO2 SLP222 T02281039 58026

VFR

22.2°C / -8.3°C

[Viac]
Vietor variable 0kt
Viditeľnosť >10km
Počasie -
Oblaky Scattered Clouds 25000ft
Tlak 1023
Zmeniť -
Nespracované KSAN 281951Z 00000KT 10SM SCT250 22/M08 A3022 RMK AO2 SLP233 T02221083

VFR

22.2°C / -7.2°C

[Viac]
Vietor variable 4kt
Viditeľnosť >10km
Počasie -
Oblaky Broken Clouds 25000ft
Tlak 1024
Zmeniť -
Nespracované KSAN 281851Z VRB04KT 10SM BKN250 22/M07 A3024 RMK AO2 SLP240 T02221072

VFR

18.9°C / -1.7°C

[Viac]
Vietor variable 0kt
Viditeľnosť >10km
Počasie -
Oblaky Broken Clouds 25000ft
Tlak 1024
Zmeniť -
Nespracované KSAN 281751Z 00000KT 10SM BKN250 19/M02 A3027 RMK AO2 SLP249 T01891017 10189 20061 50007

VFR

15°C / 1.7°C

[Viac]
Vietor variable 0kt
Viditeľnosť >10km
Počasie -
Oblaky Broken Clouds 25000ft
Tlak 1024
Zmeniť -
Nespracované KSAN 281651Z 00000KT 10SM BKN250 15/02 A3027 RMK AO2 SLP249 T01500017

VFR

9.4°C / 1.1°C

[Viac]
Vietor 340º 4kt
Viditeľnosť >10km
Počasie -
Oblaky Broken Clouds 25000ft
Tlak 1024
Zmeniť -
Nespracované KSAN 281551Z 34004KT 10SM BKN250 09/01 A3026 RMK AO2 SLP246 T00940011

VFR

7.2°C / 1.7°C

[Viac]
Vietor variable 0kt
Viditeľnosť >10km
Počasie -
Oblaky Scattered Clouds 25000ft
Tlak 1024
Zmeniť -
Nespracované KSAN 281451Z 00000KT 10SM SCT250 07/02 A3025 RMK AO2 SLP242 T00720017 53013

VFR

7.2°C / 2.2°C

[Viac]
Vietor variable 3kt
Viditeľnosť >10km
Počasie -
Oblaky Broken Clouds 25000ft
Tlak 1023
Zmeniť -
Nespracované KSAN 281351Z VRB03KT 10SM BKN250 07/02 A3023 RMK AO2 SLP236 T00720022

VFR

7.2°C / 2.2°C

[Viac]
Vietor variable 0kt
Viditeľnosť >10km
Počasie -
Oblaky Few Clouds 25000ft
Tlak 1023
Zmeniť -
Nespracované KSAN 281251Z 00000KT 10SM FEW250 07/02 A3021 RMK AO2 SLP231 T00720022

VFR

6.7°C / 2.8°C

[Viac]
Vietor variable 0kt
Viditeľnosť >10km
Počasie -
Oblaky Few Clouds 25000ft
Tlak 1022
Zmeniť -
Nespracované KSAN 281151Z 00000KT 10SM FEW250 07/03 A3021 RMK AO2 SLP229 T00670028 10111 20061 58002

VFR

7.2°C / 3.3°C

[Viac]
Vietor variable 0kt
Viditeľnosť >10km
Počasie -
Oblaky Few Clouds 25000ft
Tlak 1023
Zmeniť -
Nespracované KSAN 281051Z 00000KT 10SM FEW250 07/03 A3021 RMK AO2 SLP230 T00720033

VFR

7.8°C / 3.9°C

[Viac]
Vietor variable 0kt
Viditeľnosť >10km
Počasie -
Oblaky Few Clouds 25000ft
Tlak 1023
Zmeniť -
Nespracované KSAN 280951Z 00000KT 10SM FEW250 08/04 A3021 RMK AO2 SLP231 T00780039

VFR

8.3°C / 4.4°C

[Viac]
Vietor 290º 3kt
Viditeľnosť >10km
Počasie -
Oblaky Few Clouds 25000ft
Tlak 1023
Zmeniť -
Nespracované KSAN 280851Z 29003KT 10SM FEW250 08/04 A3021 RMK AO2 SLP231 T00830044 50001

Správy TAF pre lokalitu San Diego (KSAN)

From till


From till Wind variable 4kt. Visibility 10km or more. Scattered Clouds 25000ft.
From till Wind 300º 9kt. Visibility 10km or more. Scattered Clouds 15000ft.
From till Wind variable 4kt. Visibility 10km or more. Broken Clouds 15000ft.

Nespracované: KSAN 290528Z 2906/3012 VRB04KT P6SM SCT250 FM292000 30009KT P6SM SCT150 FM300200 VRB04KT P6SM BKN150

Radar a krátkodobá predpoveď zrážok pre San Diego

Mrholenie
Slabý
Mierne
Ťažké
Veľmi ťažké
Krúpy

Značka polohy je umiestnená na San Diego. Táto animácia ukazuje zrážky pozorované radarom za poslednú hodinu a tiež 1h predpoveď. Mrholenie alebo slabé sneženie môže byť pre radar neviditeľné. Intenzita zrážok je farebne označená od svetlomodrej po oranžovú.

Aktuálne satelitné snímky pre lokalitu San Diego, Spojené štáty americké

Značka polohy je umiestnená naSan Diego. [Viac]

Satelitné snímky zhotovované v reálnom čase využívajú viditeľné svetlo počas dňa a infračervené žiarenie počas noci. Vzhľadom na to, že infračervené žiarenie zisťuje teplotné rozdiely, snímka v noci nie je tmavá. Nízke oblaky a hmlu je, žiaľ, ťažké odlíšiť od prízemných teplôt, preto môžu byť počas noci takmer neviditeľné. Meteosat satelitné snímky pre Európu sú aktualizované v reálnom čase každých 5 minút. Snímky z GOES-16/GOES-17 (Severná a Južná Amerika) a Himawari (Ázia) sú aktualizované každých 10 minút.